Barter Island, AK

11:15 AM AKDT on June 23, 2017 (GMT -0800)
Barter Island LRRS

Weather History for PABA - November, 2013

Change the Weather History Date:

Wednesday, November 20, 2013

  Actual Average Record
Temperature  
Mean Temperature 4 °F -  
Max Temperature 7 °F 10 °F 44 °F (2004)
Min Temperature 1 °F 0 °F -31 °F (2005)
Degree Days  
Heating Degree Days 61    
Moisture  
Dew Point 2 °F    
Average Humidity 86    
Maximum Humidity 92    
Minimum Humidity 83    
Precipitation  
Precipitation 0.00 in - - ()
Sea Level Pressure  
Sea Level Pressure 30.33 in    
Wind  
Wind Speed 37 mph (WNW)    
Max Wind Speed 47 mph    
Max Gust Speed 55 mph    
Visibility 2 miles    
Events Fog , Snow    
Averages and records for this station are not official NWS values.
T = Trace of Precipitation, MM = Missing Value Source: NWS Daily Summary

Daily Weather History Graph

Daily Weather History Graph

Search for Another Location

Airport or City:

Trip Planner

Search our weather history database for the weather conditions in past years. The results will help you decide how hot, cold, wet, or windy it might be!

Date:

Astronomy

Nov. 20, 2013 Rise Set
Actual Time 11:10 AM AKST 1:28 PM AKST
Civil Twilight 9:08 AM AKST 3:30 PM AKST
Nautical Twilight 7:41 AM AKST 4:57 PM AKST
Astronomical Twilight 6:27 AM AKST 6:11 PM AKST
Moon 4:26 PM AKST (11/20) 1:38 PM AKST (11/20)
Length of Visible Light 6h 21m
Length of Day
2h 18m
Waning Gibbous, 90% of the Moon is Illuminated
Nov 20
Waning Gibbous
Nov 25
Last Quarter
Dec 2
New
Dec 9
First Quarter
Dec 17
Full

Hourly Weather History & Observations

Time (AKST) Temp. Windchill Dew Point Humidity Pressure Visibility Wind Dir Wind Speed Gust Speed Precip Events Conditions
12:01 AM 5.0 °F -22.7 °F 1.4 °F 85% - 0.2 mi WNW 43.7 mph 54.1 mph N/A Fog , Snow Heavy Snow
12:44 AM 5.0 °F -23.4 °F 1.4 °F 85% 30.15 in 0.5 mi West 47.2 mph 55.2 mph N/A Fog , Snow Snow
12:54 AM 5.0 °F -23.2 °F 1.4 °F 85% 30.14 in 0.2 mi West 46.0 mph 55.2 mph N/A Fog , Snow Heavy Snow
1:01 AM 5.0 °F -23.2 °F 3.0 °F 92% 30.15 in 0.2 mi West 46.0 mph 51.8 mph N/A Fog , Snow Heavy Snow
1:27 AM 6.8 °F -19.9 °F 3.2 °F 85% 30.16 in 0.5 mi WNW 42.6 mph 52.9 mph 0.00 in Fog , Snow Snow
2:01 AM 6.1 °F -21.6 °F 3.0 °F 87% 30.17 in 0.5 mi West 46.0 mph 50.6 mph 0.00 in Fog , Snow Snow
2:31 AM 6.8 °F -19.9 °F 3.2 °F 85% 30.18 in 0.8 mi WNW 42.6 mph 50.6 mph N/A Snow Light Snow
3:01 AM 6.1 °F -19.8 °F 3.0 °F 87% 30.17 in 0.8 mi WNW 38.0 mph 49.5 mph N/A Snow Light Snow
3:46 AM 6.8 °F -19.6 °F 3.2 °F 85% - 0.5 mi WNW 41.4 mph 49.5 mph 0.00 in Fog , Snow Snow
4:17 AM 6.8 °F -20.4 °F 3.2 °F 85% 30.19 in 0.5 mi WNW 44.9 mph 49.5 mph N/A Fog , Snow Snow
5:01 AM 7.0 °F -19.1 °F 3.9 °F 87% 30.19 in - West 40.3 mph 46.0 mph N/A Snow Snow
5:09 AM 6.8 °F -18.8 °F 3.2 °F 85% 30.19 in 0.5 mi West 38.0 mph 48.3 mph 0.00 in Fog , Snow Snow
6:01 AM 6.1 °F -19.8 °F 3.9 °F 91% 30.21 in 0.5 mi WNW 38.0 mph 47.2 mph 0.00 in Fog , Snow Snow
6:56 AM 6.8 °F -18.8 °F 3.2 °F 85% 30.22 in 0.5 mi WNW 38.0 mph 48.3 mph N/A Fog , Snow Snow
7:01 AM 6.1 °F -20.1 °F 3.0 °F 87% 30.23 in 0.5 mi WNW 39.1 mph 48.3 mph N/A Fog , Snow Snow
7:37 AM 6.8 °F -19.3 °F 3.2 °F 85% 30.24 in 1.0 mi WNW 40.3 mph 47.2 mph N/A Snow Light Snow
8:12 AM 6.8 °F -19.6 °F 3.2 °F 85% 30.26 in 2.0 mi WNW 41.4 mph 47.2 mph N/A Snow Light Snow
8:24 AM 6.8 °F -18.8 °F 3.2 °F 85% - 3.0 mi WNW 38.0 mph 46.0 mph N/A Snow Light Snow
9:01 AM 6.8 °F -18.8 °F 3.2 °F 85% 30.27 in 2.0 mi WNW 38.0 mph 43.7 mph N/A Snow Light Snow
9:08 AM 6.8 °F -19.6 °F 3.2 °F 85% 30.28 in 1.8 mi West 41.4 mph 46.0 mph N/A Snow Light Snow
10:01 AM 6.8 °F -19.3 °F 3.2 °F 85% 30.29 in 1.0 mi WNW 40.3 mph 43.7 mph N/A Snow Light Snow
10:24 AM 6.8 °F -19.3 °F 3.2 °F 85% 30.29 in 1.0 mi West 40.3 mph 46.0 mph N/A Snow Light Snow
10:48 AM 6.8 °F -18.5 °F 3.2 °F 85% 30.30 in 1.0 mi WNW 36.8 mph 42.6 mph N/A Snow Light Snow
11:01 AM 6.8 °F -18.8 °F 3.2 °F 85% 30.31 in 0.8 mi WNW 38.0 mph 41.4 mph N/A Snow Light Snow
11:08 AM 6.8 °F -18.2 °F 3.2 °F 85% 30.30 in 1.0 mi West 35.7 mph 41.4 mph N/A Snow Light Snow
11:30 AM 6.8 °F -18.8 °F 3.2 °F 85% 30.31 in 1.0 mi West 38.0 mph 42.6 mph N/A Snow Light Snow
11:42 AM 6.8 °F -18.2 °F 3.2 °F 85% 30.31 in 0.8 mi West 35.7 mph 43.7 mph N/A Snow Light Snow
11:51 AM 6.8 °F -18.5 °F 3.2 °F 85% 30.31 in 1.2 mi WNW 36.8 mph 42.6 mph N/A Snow Light Snow
12:01 PM 6.1 °F -19.5 °F 3.9 °F 91% 30.32 in 1.5 mi WNW 36.8 mph 42.6 mph N/A Snow Light Snow
12:11 PM 6.8 °F -18.2 °F 3.2 °F 85% 30.32 in 0.8 mi West 35.7 mph 43.7 mph 0.00 in Snow Light Snow
12:42 PM 6.8 °F -18.2 °F 3.2 °F 85% 30.33 in 1.0 mi WNW 35.7 mph 40.3 mph N/A Snow Light Snow
1:01 PM 6.8 °F -18.2 °F 3.2 °F 85% 30.33 in 0.8 mi West 35.7 mph 44.9 mph N/A Snow Light Snow
1:07 PM 7.0 °F -18.5 °F 3.9 °F 87% 30.34 in 0.8 mi WNW 38.0 mph 44.9 mph N/A Snow Light Snow
1:47 PM 6.8 °F -18.5 °F 3.2 °F 85% 30.34 in 0.8 mi West 36.8 mph 42.6 mph N/A Snow Light Snow
2:01 PM 6.8 °F -18.5 °F 3.2 °F 85% 30.35 in 1.0 mi WNW 36.8 mph - N/A Snow Light Snow
2:08 PM 6.8 °F -17.9 °F 3.2 °F 85% 30.35 in 1.5 mi WNW 34.5 mph 41.4 mph N/A Snow Light Snow
2:33 PM 6.8 °F -14.3 °F 3.2 °F 85% 30.34 in 0.5 mi NW 23.0 mph 39.1 mph N/A Fog , Snow Light Snow
2:59 PM 3.2 °F -17.6 °F 1.4 °F 92% 30.35 in 0.8 mi NNW 19.6 mph - N/A Snow Light Snow
3:01 PM 3.9 °F -17.1 °F 1.0 °F 88% 30.35 in 0.8 mi NW 20.7 mph - N/A Snow Light Snow
3:08 PM 3.2 °F -18.1 °F -0.4 °F 85% 30.36 in 1.2 mi NNW 20.7 mph - 0.00 in Snow Light Snow
3:17 PM 3.2 °F -18.6 °F -0.4 °F 85% 30.36 in 3.0 mi NW 21.9 mph - 0.00 in Snow Light Snow
4:01 PM 1.9 °F -20.2 °F -2.0 °F 83% 30.38 in 6.0 mi NW 21.9 mph 25.3 mph 0.00 in Snow Light Snow
4:44 PM 1.4 °F -21.4 °F -2.2 °F 85% 30.41 in 2.5 mi WNW 23.0 mph 27.6 mph 0.00 in Snow Light Snow
4:59 PM 1.4 °F -21.9 °F -2.2 °F 85% 30.42 in 1.8 mi WNW 24.2 mph 31.1 mph 0.00 in Snow Light Snow
5:01 PM 1.9 °F -21.6 °F -0.9 °F 88% 30.42 in 1.8 mi WNW 25.3 mph - 0.00 in Snow Light Snow
6:01 PM 1.4 °F -21.4 °F -0.4 °F 92% 30.44 in 3.0 mi WNW 23.0 mph 28.8 mph 0.00 in Snow Light Snow
6:11 PM 1.4 °F -22.3 °F -2.2 °F 85% 30.45 in 2.0 mi WNW 25.3 mph 31.1 mph 0.00 in Snow Light Snow
6:32 PM 1.4 °F -21.4 °F -2.2 °F 85% 30.45 in 4.0 mi NW 23.0 mph 27.6 mph 0.00 in Snow Light Snow
7:01 PM 1.0 °F -21.4 °F -2.0 °F 87% 30.46 in 4.0 mi WNW 21.9 mph - N/A Snow Light Snow
7:58 PM 1.4 °F -19.9 °F -2.2 °F 85% 30.48 in 2.5 mi WNW 19.6 mph - 0.00 in Snow Light Snow
8:01 PM 1.0 °F -20.4 °F -2.0 °F 87% 30.48 in 2.5 mi WNW 19.6 mph - 0.00 in Snow Light Snow
8:08 PM 1.4 °F -18.8 °F -2.2 °F 85% 30.48 in 3.0 mi WNW 17.3 mph - 0.00 in Snow Light Snow
8:20 PM 1.4 °F -19.4 °F -2.2 °F 85% 30.48 in 2.5 mi WNW 18.4 mph - 0.00 in Snow Light Snow
8:39 PM 1.4 °F -18.8 °F -2.2 °F 85% 30.49 in 3.0 mi WNW 17.3 mph - 0.00 in Snow Light Snow
9:01 PM 1.0 °F -18.7 °F -2.0 °F 87% 30.49 in 5.0 mi WNW 16.1 mph - 0.00 in Snow Light Snow
10:01 PM 1.9 °F -17.5 °F -0.9 °F 88% 30.51 in 6.0 mi WNW 16.1 mph - 0.00 in Snow Light Snow
11:01 PM 1.0 °F -16.6 °F -2.0 °F 87% 30.52 in 7.0 mi WNW 12.7 mph - 0.00 in Snow Light Snow